DateTimeUTC,F1_A11,F1_S11,BsB_S11,BsG_S11,BsR_S11,BbsB_S11,BbsG_S11,BbsR_S11,BaB_A11,BaG_A11,BaR_A11,Tu_S11,T_S11,Uu_S11,U_S11,P_S11,T1_A11
2021-08-03T05:00:00Z,00000200,20000000,,,,,,,0000.13,0000.21,0000.31,18.2,25.1,04.6,03.0,0672.2,30.9
2021-08-03T05:01:00Z,00000200,20000000,,,,,,,-000.19,0000.11,0000.35,18.2,25.2,04.6,03.0,0672.2,31.0
2021-08-03T05:02:00Z,00000200,20000000,,,,,,,0000.48,0000.14,-000.23,18.2,25.2,04.6,03.0,0672.2,31.0
2021-08-03T05:03:00Z,00000200,60000000,,,,,,,0000.61,0000.71,0000.63,18.2,25.2,04.6,03.0,0672.2,31.0
2021-08-03T05:04:00Z,00000200,40000000,0005.67,0003.45,0001.78,0000.94,0000.29,0000.15,0001.54,0001.36,0001.09,18.5,25.1,04.8,03.3,0673.1,31.0
2021-08-03T05:05:00Z,00000200,00000000,0005.49,0003.34,0001.97,0000.51,0000.66,0000.42,0000.96,0000.36,0000.19,18.6,25.1,04.8,03.2,0673.2,31.0
2021-08-03T05:06:00Z,00000200,00000000,0005.28,0003.60,0002.21,0001.09,0000.43,0000.53,-000.00,0000.80,0000.59,18.6,25.0,04.9,03.3,0673.1,31.0
2021-08-03T05:07:00Z,00000200,00000000,0004.10,0002.90,0001.68,0000.55,0000.50,0000.26,0000.70,0000.28,0000.13,18.6,25.0,04.7,03.1,0673.1,31.0
2021-08-03T05:08:00Z,00000200,00000000,0004.71,0002.37,0001.95,0000.42,0000.39,0000.10,0000.77,0000.52,-000.16,18.6,25.0,04.4,03.0,0673.2,31.0
2021-08-03T05:09:00Z,00000200,00000000,0003.73,0003.06,0001.54,0000.53,0000.26,0000.46,0000.37,0000.21,0000.49,18.5,25.0,04.4,02.9,0673.2,31.0
2021-08-03T05:10:00Z,00000200,00000000,0003.54,0002.62,0001.37,0000.68,0000.37,0000.45,0000.74,0000.64,0000.36,18.5,25.0,04.4,03.0,0673.2,31.0
2021-08-03T05:11:00Z,00000200,00000000,0004.18,0002.31,0001.47,0000.43,0000.23,0000.39,0000.08,0000.25,0000.17,18.5,25.0,04.1,02.8,0673.2,31.0
2021-08-03T05:12:00Z,00000200,00000000,0003.33,0002.10,0001.09,0000.55,0000.35,-000.12,0000.09,-000.01,-000.16,18.5,25.0,03.9,02.6,0673.2,30.9
2021-08-03T05:13:00Z,00000200,00000000,0002.71,0001.93,0001.25,0001.05,-000.09,0000.39,-000.07,-000.60,0000.01,18.4,24.9,03.6,02.4,0673.2,31.0
2021-08-03T05:14:00Z,00000200,00000000,0002.06,0001.97,0001.15,0000.14,0000.54,0000.17,0000.19,0000.50,-000.33,18.4,24.9,03.2,02.2,0673.2,31.0
2021-08-03T05:15:00Z,00000200,00000000,0002.30,0002.00,0001.12,0000.75,0000.28,0000.07,0000.82,0000.77,0000.37,18.4,24.9,03.0,02.0,0673.2,30.9
2021-08-03T05:16:00Z,00000200,00000000,0002.29,0001.92,0000.90,-000.08,0000.19,0000.28,0000.45,0000.18,0000.51,18.4,24.9,03.0,02.0,0673.2,31.0
2021-08-03T05:17:00Z,00000200,00000000,0002.78,0001.88,0001.22,0000.64,0000.01,0000.08,0000.41,0000.72,0000.01,18.5,25.0,02.9,01.9,0673.2,31.0
2021-08-03T05:18:00Z,00000200,00000000,0002.67,0001.89,0001.10,0000.48,0000.19,0000.29,0000.88,0000.63,0000.85,18.6,25.0,03.1,02.1,0673.2,31.0
2021-08-03T05:19:00Z,00000200,00000000,0002.42,0002.07,0001.07,0000.34,0000.35,0000.57,0000.20,0000.23,0000.16,18.6,25.0,03.1,02.1,0673.1,31.0
2021-08-03T05:20:00Z,00000200,00000000,0002.39,0002.31,0001.03,0000.79,0000.09,0000.07,0000.18,0000.04,0000.12,18.6,25.0,02.8,01.9,0673.1,31.0
2021-08-03T05:21:00Z,00000200,00000000,0003.01,0001.83,0000.77,0000.35,0000.22,-000.11,0000.38,0000.31,0000.40,18.6,25.0,02.8,01.9,0673.1,31.0
2021-08-03T05:22:00Z,00000200,00000000,0003.27,0001.77,0001.26,0000.54,0000.18,0000.19,0000.59,0000.75,-000.01,18.6,25.0,02.7,01.8,0673.1,31.0
2021-08-03T05:23:00Z,00000200,00000000,0002.51,0002.00,0001.03,0000.41,0000.19,0000.16,0000.33,0000.00,0000.18,18.5,25.0,02.7,01.8,0673.1,31.0
2021-08-03T05:24:00Z,00000200,00000000,0002.93,0002.09,0001.26,0000.81,0000.32,0000.05,0000.74,0000.51,0000.64,18.5,25.0,02.8,01.9,0673.1,31.0
2021-08-03T05:25:00Z,00000200,00000000,0002.84,0001.77,0000.95,0000.49,0000.66,0000.09,0000.25,0000.65,0000.28,18.5,24.9,02.8,01.9,0673.1,31.0
2021-08-03T05:26:00Z,00000200,00000000,0002.56,0002.03,0000.84,0000.47,0000.32,0000.40,0000.44,0000.30,0000.30,18.5,24.9,02.8,01.9,0673.1,31.0
2021-08-03T05:27:00Z,00000200,00000000,0002.41,0001.90,0000.95,0000.20,0000.52,0000.06,0000.46,-000.06,0000.05,18.5,24.9,02.7,01.8,0673.1,31.0
2021-08-03T05:28:00Z,00000200,00000000,0002.73,0001.63,0000.77,0000.63,0000.09,0000.10,0000.27,0000.79,0000.25,18.4,24.9,02.7,01.8,0673.1,31.0
2021-08-03T05:29:00Z,00000200,00000000,0002.91,0001.76,0001.00,0000.20,0000.39,0000.16,0000.66,0000.56,0000.30,18.4,24.9,02.6,01.8,0673.1,31.0
2021-08-03T05:30:00Z,00000200,00000000,0003.15,0001.35,0000.84,0000.42,0000.13,0000.17,0000.56,0000.62,0000.84,18.4,24.9,02.6,01.7,0673.1,30.9
2021-08-03T05:31:00Z,00000200,00000000,0002.67,0001.61,0000.80,0000.97,0000.02,0000.54,0000.52,0000.66,0000.48,18.5,24.9,02.5,01.7,0673.1,31.0
2021-08-03T05:32:00Z,00000200,00000000,0003.43,0001.90,0001.09,0000.00,0000.23,0000.41,0000.76,-000.11,-000.01,18.6,24.9,02.7,01.8,0673.1,31.0
2021-08-03T05:33:00Z,00000200,00000000,0002.85,0001.68,0001.13,0000.35,0000.44,0000.22,0000.44,0000.81,0000.60,18.6,25.0,02.6,01.7,0673.1,31.0
2021-08-03T05:34:00Z,00000200,00000000,0002.57,0001.43,0001.00,0000.59,-000.13,0000.16,0000.27,-000.09,0000.23,18.6,25.0,02.5,01.7,0673.1,31.0
2021-08-03T05:35:00Z,00000200,00000000,0003.51,0001.67,0001.27,0000.25,0000.09,0000.43,0000.39,0000.43,-000.07,18.6,25.0,02.4,01.6,0673.1,31.0
2021-08-03T05:36:00Z,00000200,00000000,0002.42,0001.79,0001.05,-000.01,0000.04,0000.03,0000.55,0000.71,0000.37,18.6,25.0,02.5,01.7,0673.1,31.0
2021-08-03T05:37:00Z,00000200,00000000,0004.14,0001.74,0001.25,0000.85,0000.22,0000.27,0000.76,0000.32,0000.42,18.6,25.0,02.4,01.6,0673.1,31.0
2021-08-03T05:38:00Z,00000200,00000000,0002.62,0001.74,0001.18,0000.65,0000.14,0000.09,0000.11,0000.55,0000.26,18.6,25.0,02.6,01.7,0673.1,31.0
2021-08-03T05:39:00Z,00000200,00000000,0002.83,0001.99,0000.93,0000.45,0000.35,0000.05,0000.60,0000.40,0000.15,18.6,25.0,02.5,01.7,0673.1,31.0
2021-08-03T05:40:00Z,00000200,00000000,0002.21,0001.91,0000.96,0000.93,0000.15,0000.24,0000.44,0000.70,0000.53,18.5,25.0,02.5,01.7,0673.1,31.0
2021-08-03T05:41:00Z,00000200,00000000,0002.54,0002.07,0001.12,0000.18,0000.04,0000.26,0000.79,0000.31,0000.45,18.5,24.9,02.4,01.6,0673.1,31.0
2021-08-03T05:42:00Z,00000200,00000000,0002.62,0002.02,0001.28,0000.61,0000.33,0000.00,0000.36,0000.30,0000.22,18.5,24.9,02.5,01.7,0673.1,31.0
2021-08-03T05:43:00Z,00000200,00000000,0003.25,0002.01,0001.49,-000.19,0000.27,0000.24,0000.67,0000.79,0000.83,18.5,24.9,02.6,01.7,0673.1,31.0
2021-08-03T05:44:00Z,00000200,00000000,0003.30,0002.17,0001.39,0000.46,0000.39,0000.38,0000.67,0000.36,0000.36,18.4,24.9,02.6,01.7,0673.1,31.0
2021-08-03T05:45:00Z,00000200,00000000,0002.83,0002.03,0001.17,0000.24,0000.25,0000.44,0000.69,0000.96,0000.62,18.4,24.9,02.5,01.7,0673.1,31.0
2021-08-03T05:46:00Z,00000200,00000000,0003.37,0001.87,0000.90,0000.04,0000.20,-000.20,0000.52,0000.15,-000.05,18.5,24.9,02.4,01.6,0673.1,31.0
2021-08-03T05:47:00Z,00000200,00000000,0002.43,0001.71,0001.35,0000.51,0000.30,0000.04,0000.13,0000.38,0000.37,18.5,24.9,02.6,01.7,0673.1,31.0
2021-08-03T05:48:00Z,00000200,00000000,0003.11,0001.76,0001.39,0000.08,0000.31,0000.48,0000.64,0000.85,0000.45,18.5,24.9,02.5,01.7,0673.1,31.0
2021-08-03T05:49:00Z,00000200,00000000,0002.58,0001.77,0001.23,0000.13,0000.31,0000.19,0000.43,-000.04,0000.45,18.5,24.9,02.4,01.6,0673.1,31.0
2021-08-03T05:50:00Z,00000200,00000000,0003.14,0001.96,0001.00,-000.01,0000.40,0000.29,0000.85,0001.00,0000.16,18.5,24.9,02.4,01.6,0673.1,31.0
2021-08-03T05:51:00Z,00000200,00000000,0002.46,0001.94,0001.02,-000.06,0000.20,0000.20,0000.35,0000.24,0000.39,18.5,24.9,02.4,01.6,0673.1,30.9
2021-08-03T05:52:00Z,00000200,00000000,0002.78,0001.67,0001.13,0000.93,0000.13,0000.18,0000.04,-000.11,0000.33,18.4,24.9,02.4,01.6,0673.1,31.0
2021-08-03T05:53:00Z,00000200,00000000,0002.02,0001.68,0001.15,0000.40,0000.51,0000.18,0000.49,0000.34,0000.45,18.4,24.9,02.5,01.7,0673.1,31.0
2021-08-03T05:54:00Z,00000200,01000000,0002.82,0001.63,0001.14,0000.66,0000.32,0000.26,0000.49,0000.58,0000.02,18.4,24.8,02.5,01.7,0673.1,30.9
2021-08-03T05:55:00Z,00000200,00000000,0002.12,0001.63,0000.78,0000.53,0000.05,0000.23,0000.66,0000.94,0000.61,18.4,24.9,02.4,01.6,0673.1,30.9
2021-08-03T05:56:00Z,00000200,00000000,0002.01,0001.79,0000.91,0000.45,0000.32,0000.22,0000.56,0000.16,0000.17,18.4,24.8,02.5,01.7,0673.1,30.9
2021-08-03T05:57:00Z,00000200,40000000,,,,,,,0000.71,0000.76,0001.07,18.4,24.9,03.1,02.1,0673.2,31.0
2021-08-03T05:58:00Z,00000200,60000000,,,,,,,-000.02,-000.28,-000.65,18.1,25.0,03.0,01.9,0672.2,30.9
2021-08-03T05:59:00Z,00000200,20000000,,,,,,,-000.45,-000.33,-000.06,18.1,25.0,02.8,01.8,0672.2,30.9
